DW5977 Weather Reports


Display with metric or nautical units.
time (UTC)temp
F
wind
direction
speed
MPH
gust
MPH
rain 1hr
in
rain 24hr
in
rain mn
in
humidity
%
barometer
mb
20260506051003 48 141 1.0 2.0 0.13 0.99 0.14 92 1008.8
20260506050503 48 140 1.0 2.0 0.13 0.98 0.13 92 1008.9
20260506045003 48 142 0.0 2.0 0.10 0.94 0.09 92 1008.5
20260506044503 48 142 0.0 2.0 0.09 0.93 0.08 92 1008.3
20260506044003 48 145 0.0 2.0 0.09 0.92 0.07 92 1008.4
20260506043503 48 145 0.0 2.0 0.08 0.91 0.06 92 1008.3
20260506043003 48 145 0.0 2.0 0.08 0.90 0.05 92 1008.3
20260506042503 48 145 0.0 2.0 0.07 0.89 0.04 92 1008.3
20260506042024 48 145 0.0 2.0 0.06 0.88 0.03 92 1008.3
20260506041503 48 145 0.0 2.0 0.06 0.87 0.02 92 1008.3
20260506041003 49 145 0.0 3.0 0.06 0.86 0.01 92 1008.4
20260506040503 48 145 0.0 3.0 0.05 0.85 0.00 92 1008.5
20260506040004 49 146 0.0 3.0 0.06 0.85 0.00 92 1008.4
20260506035503 48 146 0.0 3.0 0.07 0.85 0.85 92 1008.3
20260506035004 49 147 0.0 3.0 0.07 0.84 0.84 92 1008.3
20260506034503 49 147 1.0 2.0 0.08 0.84 0.84 92 1008.2
20260506034024 49 150 1.0 3.0 0.08 0.83 0.83 92 1008.1
20260506033503 49 152 1.0 3.0 0.08 0.83 0.83 92 1008.0
20260506033004 49 155 1.0 2.0 0.08 0.82 0.82 92 1008.1
20260506032504 49 155 0.0 2.0 0.08 0.82 0.82 92 1008.2
20260506032003 49 187 0.0 3.0 0.08 0.82 0.82 92 1008.3
20260506031503 49 187 0.0 3.0 0.07 0.81 0.81 92 1008.3
20260506031003 49 214 0.0 1.0 0.07 0.80 0.80 92 1008.6
20260506030524 49 214 0.0 1.0 0.07 0.80 0.80 92 1008.7
20260506030003 49 214 0.0 1.0 0.06 0.79 0.79 92 1008.6
20260506025503 49 214 0.0 2.0 0.05 0.78 0.78 92 1008.7
20260506025003 49 214 0.0 2.0 0.04 0.77 0.77 92 1008.8
20260506024503 49 214 0.0 1.0 0.03 0.76 0.76 92 1008.8
20260506024003 49 0 0.0 0.0 0.02 0.75 0.75 92 1008.9
20260506023524 49 0 0.0 0.0 0.03 0.75 0.75 92 1009.0
20260506023003 49 0 0.0 0.0 0.02 0.74 0.74 92 1009.0
20260506022524 49 214 0.0 1.0 0.02 0.74 0.74 92 1008.9
20260506022003 49 214 0.0 1.0 0.03 0.74 0.74 92 1008.8
20260506021503 49 214 0.0 1.0 0.03 0.74 0.74 92 1009.0
20260506021004 49 214 0.0 1.0 0.02 0.73 0.73 91 1009.1
20260506020503 49 0 0.0 0.0 0.03 0.73 0.73 91 1008.8
20260506020024 49 0 0.0 0.0 0.03 0.73 0.73 91 1008.8
20260506015503 49 0 0.0 0.0 0.04 0.73 0.73 91 1008.8
20260506015003 49 0 0.0 0.0 0.04 0.73 0.73 91 1008.7
20260506014503 49 214 0.0 3.0 0.05 0.73 0.73 91 1008.7
20260506014003 49 214 0.0 3.0 0.06 0.73 0.73 91 1008.8
20260506013503 49 214 0.0 2.0 0.06 0.72 0.72 91 1008.9
20260506013024 49 214 0.0 3.0 0.07 0.72 0.72 91 1009.1
20260506012503 49 214 0.0 3.0 0.08 0.72 0.72 91 1009.1
20260506012004 49 214 0.0 2.0 0.08 0.71 0.71 91 1009.2
20260506011503 49 0 0.0 0.0 0.08 0.71 0.71 91 1008.9
20260506011003 49 214 0.0 1.0 0.08 0.71 0.71 91 1008.9
20260506010503 49 214 0.0 1.0 0.08 0.70 0.70 91 1008.9
20260506010003 49 0 0.0 0.0 0.09 0.70 0.70 91 1008.9
20260506005503 49 0 0.0 0.0 0.08 0.69 0.69 91 1008.9
20260506005024 49 214 0.0 1.0 0.09 0.69 0.69 91 1008.9
20260506004504 49 214 0.0 2.0 0.08 0.68 0.68 91 1008.8
20260506004003 49 214 1.0 2.0 0.08 0.67 0.67 91 1009.0
20260506003503 49 214 1.0 3.0 0.08 0.66 0.66 91 1009.0
20260506003003 49 210 1.0 5.0 0.08 0.65 0.65 90 1008.8
20260506002503 49 200 1.0 5.0 0.07 0.64 0.64 90 1009.0
20260506002003 49 175 1.0 4.0 0.07 0.63 0.63 91 1008.7
20260506001503 49 173 0.0 4.0 0.07 0.63 0.63 90 1008.7
20260506001024 49 0 0.0 0.0 0.08 0.63 0.63 91 1008.8
20260506000503 49 0 0.0 0.0 0.07 0.62 0.62 91 1008.6
20260506000025 49 0 0.0 0.0 0.07 0.61 0.61 91 1008.3
20260505235503 49 0 0.0 0.0 0.08 0.61 0.61 90 1008.1
20260505235003 49 0 0.0 0.0 0.08 0.60 0.60 90 1008.6
20260505234503 49 0 0.0 0.0 0.09 0.60 0.60 90 1008.4
20260505234003 49 244 0.0 2.0 0.09 0.59 0.59 90 1008.2
20260505233503 49 244 0.0 2.0 0.09 0.58 0.58 90 1008.2
20260505233003 49 244 0.0 1.0 0.09 0.57 0.57 90 1008.3
20260505232003 49 244 0.0 3.0 0.10 0.56 0.56 90 1007.9
20260505231503 49 244 0.0 2.0 0.12 0.56 0.56 90 1007.9
20260505231003 49 244 0.0 3.0 0.13 0.55 0.55 90 1008.0
20260505230503 49 262 1.0 4.0 0.14 0.55 0.55 90 1008.2
20260505230024 49 278 1.0 4.0 0.14 0.54 0.54 90 1008.3
20260505225504 49 318 1.0 5.0 0.14 0.53 0.53 90 1008.2
20260505225003 49 321 2.0 8.0 0.15 0.52 0.52 90 1008.1
20260505224503 49 332 2.0 8.0 0.15 0.51 0.51 90 1008.2
20260505224003 50 336 2.0 5.0 0.16 0.50 0.50 90 1008.2
20260505223524 50 331 2.0 5.0 0.16 0.49 0.49 90 1008.0
20260505223003 50 317 2.0 6.0 0.16 0.48 0.48 89 1008.0
20260505222503 51 282 3.0 11.0 0.16 0.47 0.47 89 1008.1
20260505222003 51 267 4.0 13.0 0.16 0.46 0.46 90 1008.1
20260505221524 51 266 5.0 13.0 0.16 0.44 0.44 90 1008.3
20260505221003 52 271 5.0 10.0 0.16 0.42 0.42 89 1008.0
20260505220503 52 272 5.0 10.0 0.16 0.41 0.41 89 1008.1
20260505220004 52 266 4.0 9.0 0.16 0.40 0.40 90 1007.8
20260505215503 53 252 4.0 12.0 0.16 0.39 0.39 90 1007.7
20260505215003 53 246 4.0 12.0 0.14 0.37 0.37 89 1007.8
20260505214503 53 243 4.0 10.0 0.15 0.36 0.36 89 1007.7
20260505214003 53 232 4.0 10.0 0.13 0.34 0.34 89 1007.5
20260505213503 53 227 4.0 10.0 0.13 0.33 0.33 89 1007.5
20260505213003 53 236 5.0 11.0 0.12 0.32 0.32 88 1007.4
20260505212503 53 241 5.0 14.0 0.11 0.31 0.31 88 1007.5
20260505212003 53 244 5.0 14.0 0.10 0.30 0.30 88 1007.4
20260505211503 54 238 5.0 13.0 0.08 0.28 0.28 87 1007.4
20260505211003 54 235 5.0 11.0 0.06 0.26 0.26 87 1007.3
20260505210503 54 235 5.0 12.0 0.05 0.25 0.25 87 1007.2
20260505210003 54 236 5.0 12.0 0.04 0.24 0.24 86 1007.1
20260505205503 54 232 5.0 12.0 0.03 0.23 0.23 86 1006.9
20260505205024 55 231 5.0 14.0 0.03 0.23 0.23 85 1006.7
20260505204503 55 238 5.0 14.0 0.01 0.21 0.21 84 1006.7
20260505204003 55 235 5.0 11.0 0.01 0.21 0.21 84 1006.5
20260505203503 56 229 4.0 14.0 0.00 0.20 0.20 83 1006.3
20260505203003 56 221 5.0 14.0 0.00 0.20 0.20 83 1006.2
20260505202503 56 219 5.0 13.0 0.00 0.20 0.20 82 1006.4
20260505202003 56 226 6.0 13.0 0.00 0.20 0.20 81 1006.4
20260505201503 56 237 7.0 15.0 0.00 0.20 0.20 80 1006.4
20260505201003 57 236 7.0 19.0 0.00 0.20 0.20 79 1006.5
20260505200503 58 233 6.0 19.0 0.00 0.20 0.20 77 1006.8
20260505200003 58 223 5.0 15.0 0.00 0.20 0.20 76 1006.4
20260505195503 58 210 5.0 12.0 0.00 0.20 0.20 77 1006.2
20260505195024 57 218 6.0 13.0 0.00 0.20 0.20 77 1006.1
20260505194503 57 220 6.0 15.0 0.00 0.20 0.20 76 1006.1
20260505194003 58 218 6.0 15.0 0.00 0.20 0.20 76 1006.0
20260505193503 58 224 5.0 14.0 0.00 0.20 0.20 75 1006.0
20260505193024 58 218 5.0 15.0 0.00 0.20 0.20 75 1005.9
20260505192503 58 218 6.0 15.0 0.00 0.20 0.20 75 1006.0
20260505192003 58 220 6.0 15.0 0.00 0.20 0.20 75 1005.9
20260505191503 58 225 6.0 15.0 0.00 0.20 0.20 75 1005.8
20260505191003 58 223 5.0 15.0 0.00 0.20 0.20 75 1006.1
20260505190503 59 212 6.0 15.0 0.00 0.20 0.20 74 1006.3
20260505190004 59 212 7.0 18.0 0.00 0.20 0.20 74 1006.3
20260505185524 59 212 7.0 18.0 0.00 0.20 0.20 73 1006.2
20260505185003 60 217 7.0 16.0 0.00 0.20 0.20 72 1006.1
20260505184503 61 232 7.0 16.0 0.00 0.20 0.20 71 1006.0
20260505184003 61 232 7.0 16.0 0.00 0.20 0.20 71 1006.0
20260505183524 61 232 7.0 18.0 0.00 0.20 0.20 71 1005.8
20260505183024 61 232 8.0 25.0 0.00 0.20 0.20 70 1005.8
20260505182503 61 226 9.0 25.0 0.00 0.20 0.20 71 1005.8
20260505182003 61 232 9.0 19.0 0.00 0.20 0.20 70 1005.7
20260505181503 61 233 9.0 19.0 0.00 0.20 0.20 69 1005.6
20260505181003 62 229 7.0 16.0 0.00 0.20 0.20 69 1005.5
20260505180524 62 245 7.0 22.0 0.00 0.20 0.20 69 1005.3
20260505180003 62 253 9.0 22.0 0.00 0.20 0.20 69 1005.3
20260505175503 62 245 9.0 21.0 0.00 0.20 0.20 70 1005.5
20260505175003 61 237 8.0 17.0 0.00 0.20 0.20 70 1005.2
20260505174503 61 236 9.0 21.0 0.00 0.20 0.20 71 1005.2
20260505174003 61 238 8.0 21.0 0.00 0.20 0.20 71 1005.4
20260505173503 60 232 9.0 17.0 0.00 0.20 0.20 71 1005.4
20260505173003 60 240 9.0 20.0 0.00 0.20 0.20 71 1005.4
20260505172503 60 249 9.0 20.0 0.00 0.20 0.20 72 1005.4
20260505172003 59 247 9.0 22.0 0.00 0.20 0.20 72 1005.4
20260505171503 59 241 8.0 22.0 0.00 0.20 0.20 71 1005.4
20260505171003 59 244 8.0 21.0 0.00 0.20 0.20 70 1005.4
20260505170524 60 245 8.0 18.0 0.00 0.20 0.20 70 1005.3
20260505170003 60 236 7.0 15.0 0.00 0.20 0.20 69 1005.3
20260505165503 60 234 8.0 20.0 0.00 0.20 0.20 70 1005.2
20260505165003 60 230 8.0 20.0 0.00 0.20 0.20 69 1005.3
20260505164503 60 235 8.0 18.0 0.00 0.20 0.20 69 1005.1
20260505164003 60 236 8.0 18.0 0.00 0.20 0.20 68 1004.9
20260505163524 60 227 8.0 17.0 0.00 0.20 0.20 69 1004.8
20260505163003 60 217 7.0 17.0 0.00 0.20 0.20 69 1004.7
20260505162503 59 213 7.0 18.0 0.00 0.20 0.20 69 1004.7
20260505162024 59 216 8.0 18.0 0.00 0.20 0.20 69 1004.7
20260505161524 59 226 8.0 17.0 0.00 0.20 0.20 70 1004.9
20260505161003 59 230 8.0 16.0 0.00 0.20 0.20 70 1004.9
20260505160524 59 229 8.0 16.0 0.00 0.20 0.20 70 1005.1
20260505153003 61 234 7.0 20.0 0.00 0.20 0.20 66 1004.2
20260505152504 61 228 8.0 20.0 0.00 0.20 0.20 65 1004.1
20260505152024 61 234 8.0 18.0 0.00 0.20 0.20 66 1004.0
20260505151524 61 233 7.0 18.0 0.00 0.20 0.20 66 1004.0
20260505151003 61 237 6.0 16.0 0.00 0.20 0.20 67 1004.1
20260505150524 61 245 6.0 16.0 0.00 0.20 0.20 68 1003.8
20260505140503 61 225 6.0 16.0 0.00 0.20 0.20 67 1003.4
20260505125003 68 200 8.0 23.0 0.00 0.20 0.20 57 1002.1
20260505124503 68 202 8.0 23.0 0.00 0.20 0.20 57 1002.1
20260505124024 68 206 8.0 18.0 0.00 0.20 0.20 57 1002.1
20260505123503 67 202 8.0 21.0 0.00 0.20 0.20 57 1002.1
20260505123003 67 205 7.0 18.0 0.00 0.20 0.20 58 1002.2
20260505122503 67 203 6.0 16.0 0.00 0.20 0.20 58 1002.1
20260505122003 67 203 6.0 16.0 0.00 0.20 0.20 58 1002.2
20260505121503 67 199 7.0 19.0 0.00 0.20 0.20 58 1002.2
20260505121003 67 200 7.0 21.0 0.00 0.20 0.20 58 1002.1
20260505120524 67 202 7.0 21.0 0.00 0.20 0.20 58 1002.0
20260505120004 67 201 7.0 15.0 0.00 0.20 0.20 58 1002.0
20260505115524 67 200 6.0 16.0 0.00 0.20 0.20 58 1001.9
20260505115003 67 204 5.0 16.0 0.00 0.20 0.20 59 1001.8
20260505114524 67 202 6.0 15.0 0.00 0.20 0.20 59 1001.7
20260505114003 67 197 6.0 13.0 0.00 0.20 0.20 59 1001.8
20260505113503 67 199 7.0 19.0 0.00 0.20 0.20 59 1001.7
20260505113003 66 194 7.0 19.0 0.00 0.20 0.20 59 1001.7
20260505112524 66 195 7.0 15.0 0.00 0.20 0.20 60 1001.7
20260505112024 66 196 7.0 16.0 0.00 0.20 0.20 60 1001.7
20260505111503 66 190 7.0 17.0 0.00 0.20 0.20 60 1001.7
20260505111003 66 189 6.0 17.0 0.00 0.20 0.20 60 1001.5
20260505110503 66 195 7.0 18.0 0.00 0.20 0.20 60 1001.4
20260505102024 64 183 7.0 19.0 0.00 0.20 0.20 64 1000.9
20260505101503 64 185 7.0 19.0 0.00 0.20 0.20 64 1000.8
20260505101024 64 186 7.0 18.0 0.00 0.20 0.20 64 1000.7
20260505100503 64 191 7.0 17.0 0.00 0.20 0.20 64 1000.8
20260505100003 64 187 8.0 17.0 0.00 0.20 0.20 64 1000.8
20260505095503 64 185 7.0 19.0 0.00 0.20 0.20 65 1000.8
20260505095003 64 188 7.0 21.0 0.00 0.20 0.20 66 1000.8
20260505094503 64 179 8.0 22.0 0.00 0.20 0.20 66 1000.8
20260505094003 64 175 7.0 26.0 0.00 0.20 0.20 66 1000.8
20260505093503 63 183 6.0 26.0 0.00 0.20 0.20 67 1000.8
20260505093024 63 180 6.0 14.0 0.00 0.20 0.20 68 1000.8
20260505092503 63 171 6.0 14.0 0.00 0.20 0.20 68 1000.7
20260505092003 62 170 6.0 12.0 0.00 0.20 0.20 70 1000.7
20260505091503 62 168 6.0 15.0 0.00 0.20 0.20 70 1000.6
20260505091003 62 173 6.0 15.0 0.00 0.20 0.20 71 1000.5
20260505090524 62 189 8.0 15.0 0.00 0.20 0.20 72 1000.7
20260505090003 61 184 7.0 13.0 0.00 0.20 0.20 73 1000.7
20260505085503 61 168 5.0 12.0 0.00 0.20 0.20 74 1000.7
20260505085003 61 172 4.0 12.0 0.00 0.20 0.20 75 1000.8
20260505084503 60 176 3.0 10.0 0.00 0.20 0.20 75 1000.8
20260505084003 60 182 4.0 11.0 0.00 0.20 0.20 76 1001.0
20260505083524 60 187 4.0 11.0 0.00 0.20 0.20 77 1001.0
20260505083024 60 188 3.0 10.0 0.00 0.20 0.20 79 1000.9
20260505082503 59 183 3.0 9.0 0.00 0.20 0.20 80 1000.7
20260505082003 59 179 5.0 15.0 0.00 0.20 0.20 82 1000.8
20260505081524 58 174 6.0 15.0 0.00 0.20 0.20 86 1000.9
20260505081003 56 167 4.0 13.0 0.00 0.20 0.20 91 1001.1
20260505080503 55 168 2.0 9.0 0.00 0.20 0.20 91 1001.2
20260505080003 54 182 0.0 4.0 0.00 0.20 0.20 91 1001.2
20260505075503 54 185 0.0 1.0 0.00 0.20 0.20 90 1001.3
20260505075003 54 0 0.0 0.0 0.00 0.20 0.20 90 1001.3
20260505074503 54 185 0.0 2.0 0.00 0.20 0.20 90 1001.2
20260505074003 54 185 0.0 2.0 0.00 0.20 0.20 90 1001.2
20260505073503 54 0 0.0 0.0 0.00 0.20 0.20 90 1001.3
20260505073003 54 0 0.0 0.0 0.00 0.20 0.20 89 1001.4
20260505072503 55 0 0.0 0.0 0.00 0.20 0.20 89 1001.4
20260505072024 55 0 0.0 0.0 0.00 0.20 0.20 89 1001.5
20260505071503 55 0 0.0 0.0 0.00 0.20 0.20 89 1001.5
20260505071003 55 185 0.0 1.0 0.00 0.20 0.20 89 1001.8
20260505070503 55 185 1.0 2.0 0.00 0.20 0.20 89 1001.8
20260505070003 55 185 1.0 3.0 0.01 0.20 0.20 89 1002.0
20260505065524 55 185 1.0 3.0 0.01 0.20 0.20 88 1002.1
20260505065003 55 185 1.0 3.0 0.10 0.20 0.20 88 1002.4
20260505064503 56 185 0.0 3.0 0.14 0.20 0.20 88 1002.5
20260505064003 56 185 0.0 2.0 0.20 0.20 0.20 88 1002.4
20260505063503 56 185 0.0 2.0 0.20 0.20 0.20 88 1002.3
20260505063003 56 184 1.0 3.0 0.20 0.20 0.20 88 1002.5
20260505062503 56 184 2.0 5.0 0.20 0.20 0.20 88 1002.5
20260505062003 56 183 3.0 6.0 0.20 0.20 0.20 87 1002.7
20260505061503 56 176 4.0 8.0 0.20 0.20 0.20 87 1002.6
20260505061003 56 180 3.0 8.0 0.20 0.20 0.20 87 1002.4
20260505060503 56 199 3.0 7.0 0.20 0.20 0.20 86 1002.7
20260505060003 57 214 4.0 16.0 0.19 0.19 0.19 85 1002.7
20260505055503 57 219 6.0 16.0 0.19 0.19 0.19 84 1002.9
20260505055024 58 226 7.0 16.0 0.10 0.10 0.11 81 1003.4